THOR BURNER 2 R/B, 3522

Orbit data source: Space-Track

THOR BURNER 2 R/B, 3522 is space debris in SSO originally from a launch on Wed, 23 Oct 1968 UTC launched from the Air Force Western Test Range (AFWTR). Debris objects in space refer to the collection of defunct objects orbiting the Earth. Examples of debris include non-operational satellites, rocket bodies, and fragments generated from explosions, collisions, or faulty payload assembly.

Loading next visibility...
Identifier
3522, 1968-092B
Orbit
SSO
Country
Flag of USUS
Related business
Manufacturer
Thiokol/TE
Mission
Spacecraft
Bus & Motor
STAR 37, Unknown motor
Mass
154 kg wet, 154 kg dry
Launch date (UTC)
1968-10-23 (57 years ago)
Launch vehicle
Unknown
Launch site
Air Force Western Test Range (AFWTR)
Object type
Payload
Rocket body
Debris
Shape & HBR
Unknown
Radar Cross Section
Large (>1 m²)

Expand to show TLE details & history
Last TLE update: 6 hours ago

TLE from 6 hours ago
0 THOR BURNER 2 R/B
1 03522U 68092B   25293.90736406  .00000478  00000-0  19843-3 0  9990
2 03522  98.7851  77.7518 0029532 145.8556 214.4533 14.30882912966058
Epoch: 2025-10-20T21:46Z
TLE epoch observation values (Epoch: 2025-10-20T21:46:36.254Z)
Latitude
-0.00007°
Longitude
81.49781°
Altitude
809.184 km
Speed
7.44 km/s
True Right ascension
05h 11m 00s
True Declination
0° 00' 00"
Sunlit
Object was in full shadow at epoch
Visualization orbit readout
Latitude
Unknown
Longitude
Unknown
Altitude
Unknown
Speed
Unknown
Apparent Right ascension
Unknown
Apparent Declination
Unknown
Sunlit
N/A
Visualization observer readout
Local Sidereal Time
23:07:19
Azimuth
Unknown
Elevation
Unknown
Doppler factor
Unknown
Orbital elements
Apogee altitude
807.086 km
Perigee altitude
764.772 km
Semi-major axis
7,164.066 km
Eccentricity
0.00295
Inclination
98.7851°
RAAN
77.7518°
Arg. of periapsis
145.8556°
True anomaly
214.26243°
Mean anomaly
214.4533°
Eccentric anomaly
214.35781°
Mean motion
3.57935 °/min
Orbital period
100.58 mins
BSTAR
0.00019843
Loading maneuver chart data...
Computing Atmospheric mass density...
Loading historical data...
Loading historical data...
Loading historical data...
Loading historical data...
Loading historical data...
Loading historical data...
Loading historical data...
Other satellites on launch #92 in the year 1968 (1968-10-23 UTC)

Documentation

Showing up to 5 results
|